STARLINK-31963, 59893

Orbit data source: Space-Track

STARLINK-31963, 59893 is a payload satellite owned by SpaceX/Seattle (US) in LEO that was launched on Tue, 28 May 2024 UTC via an FALCON 9 launch vehicle from the Air Force Eastern Test Range (AFETR). Payload-class satellites include a variety of spacecraft equipped with specific instruments for various scientific and technological missions. These include communications satellites like Starlink; space stations such as the ISS; scientific satellites like the Hubble; Earth observation satellites from companies like Planet Labs, Umbra, and HawkEye 360; GPS; miniature CubeSats for education and research; and military/defense satellites.

Loading next visibility...
Identifier
59893, 2024-100J
Orbit
LEO
Country
Flag of USUS
Related business
Manufacturer
SpaceX/Seattle
Mission
Operational Commercial Communications
Bus & Motor
STARLINK V2M, Unknown motor
Mass
730 kg wet, ~700 kg dry
Launch date (UTC)
2024-05-28 (1 year ago)
Launch vehicle
FALCON 9
Launch site
Air Force Eastern Test Range (AFETR)
Object type
Payload
Rocket body
Debris
Shape & HBR
Box + 2 Pan, 17.7 m
Radar Cross Section
33.884 m², Large (>1 m²)

Expand to show TLE details & history
Last TLE update: 1 day ago

TLE from 1 day ago
0 STARLINK-31963
1 59893U 24100J   25310.49058712  .00000988  00000-0  45424-4 0  9996
2 59893  43.0047 101.2901 0001871 285.9438  74.1208 15.27579634 82319
Epoch: 2025-11-06T11:46Z
TLE epoch observation values (Epoch: 2025-11-06T11:46:26.727Z)
Latitude
0.00003°
Longitude
-121.26938°
Altitude
482.475 km
Speed
7.626 km/s
True Right ascension
06h 45m 09s
True Declination
0° 00' 00"
Sunlit
Object was in full shadow at epoch
Visualization orbit readout
Latitude
Unknown
Longitude
Unknown
Altitude
Unknown
Speed
Unknown
Apparent Right ascension
Unknown
Apparent Declination
Unknown
Sunlit
N/A
Visualization observer readout
Local Sidereal Time
12:27:57
Azimuth
Unknown
Elevation
Unknown
Doppler factor
Unknown
Orbital elements
Apogee altitude
486.279 km
Perigee altitude
483.71 km
Semi-major axis
6,863.132 km
Eccentricity
0.00019
Inclination
43.0047°
RAAN
101.2901°
Arg. of periapsis
285.9438°
True anomaly
74.14142°
Mean anomaly
74.1208°
Eccentric anomaly
74.13111°
Mean motion
3.81733 °/min
Orbital period
94.31 mins
BSTAR
0.000045424
Loading maneuver chart data...
Computing Atmospheric mass density...
Loading historical data...
Loading historical data...
Loading historical data...
Loading historical data...
Loading historical data...
Loading historical data...
Loading historical data...

Documentation

Showing up to 5 results
|